Location: Chrome
(40.5765°N, 74.2163°W)
Time: 09:46:36
(UTC+00:00)

CORIOLIS - Pass Details

Date: 06 December 2019
Orbit: 817 x 839 km, 98.7° (Epoch: 27 January)

Event Time Altitude Azimuth Distance (km) Brightness Sun altitude
Rises 22:13:08 0° 155° (SSE) 3,373 7.3 -8.2°
Reaches altitude 10° 22:15:29 10° 153° (SSE) 2,445 6.6 -8.6°
Maximum altitude 22:20:51 64° 73° (ENE) 929 4.2 -9.6°
Drops below altitude 10° 22:26:14 10° 353° (N) 2,464 6.5 -10.5°
Sets 22:28:37 0° 350° (N) 3,401 7.2 -11.0°
